www.pogodaiklimat.ru

Погода и климат >> Архив погоды >> Индия >> Ajmer


ПОГОДА в Ajmer

  • Прогноз погоды в Ajmer
  • Монитор погоды в Ajmer
  • Климат города

АРХИВ ПОГОДЫ в Ajmer

Время (UTC), дата Ветер
(напр.,м/с)
 
Видим.   Явления Облачность Т
(С)
Тd
(С)
f
(%)
Тe
(С)
Тes
(С)
Комфортность P
(гПа)
Po
(гПа)
Тmin
(С)
Tmax
(С)
R
(мм)
R24
(мм)
S
(см)
21 18.06 СЗ 1 2000 м пыль ясно +32.0 +18.8 46 +37 +37 очень
душно
999.0 999.0
03 19.06 ЮЗ 1 2000 м мгла ясно +33.4 +19.9 45 +39 +49 очень
душно
999.6 1000.0 +29.5 +38.2
06 19.06 З 1 2000 м мгла 8/8 1000 м
[Sc diur, vesp]
+37.0 +20.1 37 +43 +47 опасность
перегрева
998.8 999.0
09 19.06 З 2 4000 м 6/4 600 м
[Sc Ac trans]
+39.0 +18.9 31 +43 +52 опасность
перегрева
997.1 997.0
12 19.06 З 5 1000 м гроза без осадков 9/6 600 м
[Cb calv Ac trans Ci fib]
+35.2 +14.6 29 +36 +37 очень
жарко
996.7 997.0 +40.2
15 19.06 Ю 2 2000 м пыль {гроза, дождь} 8/4 1000 м
[Sc Ac trans]
+29.6 +19.5 55 +36 +36 очень
душно
1000.0 1000.0 0.0
18 19.06 Ю 1 2000 м пыль {гроза, дождь} 5/3 1000 м
[Sc Ac trans]
+28.6 +20.1 60 +35 +35 очень
душно
1000.6 1001.0 0.0
21 19.06 ЮЗ 2 2000 м пыль 4/3 1000 м
[Sc Ac trans]
+28.2 +20.0 61 +34 +34 очень
душно
1000.5 1001.0 0.0
00 20.06 штиль 0 2000 м мгла 5/3 1000 м
[Sc Ac trans]
+28.0 +19.7 61 +34 +34 очень
душно
1000.9 1001.0 0.0
03 20.06 ЮЗ 2 2000 м мгла 3/3 600 м
[Sc Ac trans]
+31.8 +20.8 52 +39 +45 очень
душно
999.7 1000.0 +27.0 +40.2 0.0
06 20.06 З 1 2000 м мгла ясно +37.6 +17.3 30 +40 +65 опасность
солнечного
удара
1000.4 1000.0
09 20.06 Ю 1 2000 м мгла 9/6 1000 м
[Sc diur, vesp Ac trans]
+40.4 +15.8 24 +42 +46 опасность
перегрева
997.3 997.0
12 20.06 Ю 1 2000 м {дождь} 9/5 600 м
[Sc Ac trans Ci fib]
+34.6 +18.4 38 +39 +40 очень
душно
996.4 996.0 +42.0 0.3
15 20.06 Ю 1 2000 м мгла 9/6 600 м
[Sc Ac trans]
+33.6 +16.2 35 +36 +36 очень
душно
998.4 998.0 0.3
18 20.06 штиль 0 2000 м мгла 9/5 600 м
[Sc Ac trans]
+33.2 +17.7 40 +37 +37 очень
душно
999.3 999.0 0.3
21 20.06 штиль 0 2000 м мгла 9/6 1000 м
[Sc Ac trans]
+32.6 +16.9 39 +36 +36 очень
душно
997.0 997.0
00 21.06 СЗ 1 2000 м мгла 9/4 600 м
[Sc Ac trans Ci fib]
+32.0 +16.1 38 +35 +35 очень
душно
999.6 1000.0 0.3
03 21.06 СЗ 1 2000 м мгла 8/3 1000 м
[Sc Ac trans Ci fib]
+33.6 +17.4 38 +37 +41 очень
душно
1000.9 1001.0 +28.5 +42.0 0.3
06 21.06 СЗ 1 2000 м мгла ясно +38.6 +16.2 27 +41 +65 опасность
перегрева
999.5 1000.0
09 21.06 ЮЗ 1 2000 м мгла 6/4 600 м
[Cb calv Ac trans]
+40.0 +16.1 25 +42 +53 опасность
перегрева
997.6 998.0
12 21.06 З 1 2000 м мгла {дождь} 8/4 600 м
[Cb calv Ac trans]
+38.4 +15.9 27 +40 +42 очень
душно
995.3 995.0 +41.5 0.0
15 21.06 Ю 1 2000 м мгла 9/4 600 м
[Cb calv Ac trans]
+36.6 +16.3 30 +39 +39 очень
душно
996.9 997.0 0.0
18 21.06 ЮЗ 2 2000 м мгла {морось} ?/? +34.4 +15.7 33 +37 +37 очень
душно
998.0 998.0 0.0
21 21.06 ЮЗ 2 2000 м мгла 8/5 600 м
[Sc Ac trans]
+32.0 +16.1 38 +35 +35 очень
душно
996.9 997.0 0.0
00 22.06 ЮЗ 2 2000 м мгла 6/3 600 м
[Sc Ac trans]
+32.2 +16.4 39 +35 +35 очень
душно
997.8 998.0 0.0
03 22.06 З 1 2000 м мгла 6/0
[Ac trans Ci fib]
+34.6 +17.2 36 +38 +44 очень
душно
999.4 999.0 +30.9 +41.5 0.0
06 22.06 З 1 2000 м мгла 6/0
[Ac trans Ci fib]
+38.0 +18.7 32 +42 +59 опасность
перегрева
999.1 999.0
09 22.06 В 1 2000 м мгла 6/5 600 м
[Sc diur, vesp Ac trans]
+40.0 +15.7 24 +41 +50 опасность
перегрева
996.7 997.0
12 22.06 В 1 2000 м мгла 8/6 600 м
[Sc diur, vesp Ac trans]
+40.4 +13.4 20 +40 +41 очень
жарко
993.9 994.0 +42.3
15 22.06 ЮЗ 2 2000 м мгла 9/6 600 м
[Sc diur, vesp Ac trans]
+35.0 +14.8 30 +36 +36 очень
жарко
996.9 997.0
18 22.06 З 4 2000 м мгла 6/4 600 м
[Sc Ac trans]
+32.8 +18.3 42 +37 +37 очень
душно
998.6 999.0
21 22.06 З 3 2000 м мгла 5/4 600 м
[Sc Ac trans]
+31.4 +18.1 45 +36 +36 очень
душно
998.1 998.0
00 23.06 З 2 2000 м мгла 8/4 600 м
[Sc Ac trans]
+30.4 +19.8 53 +37 +37 очень
душно
998.6 999.0
03 23.06 З 2 2000 м мгла 6/4 600 м
[Sc Ac trans]
+33.4 +19.9 45 +39 +43 очень
душно
999.9 1000.0 +29.6 +42.3
06 23.06 З 4 2000 м мгла 8/3 600 м
[Sc Ac trans]
+36.8 +19.8 37 +42 +48 опасность
перегрева
999.1 999.0
09 23.06 штиль 0 2000 м мгла 8/5 600 м
[Sc diur, vesp Ac trans Ci fib]
+39.6 +20.1 33 +45 +54 опасность
перегрева
996.5 997.0
12 23.06 З 1 2000 м мгла {дождь} 8/4 600 м
[Cb calv Ac trans Ci fib]
+35.4 +16.7 33 +38 +40 очень
душно
995.0 995.0 +40.6 0.4
15 23.06 З 1 2000 м мгла {гроза, дождь} 9/4 600 м
[Sc Ac trans Ci fib]
+30.0 +20.3 56 +37 +37 очень
душно
997.3 997.0 0.4
18 23.06 З 1 2000 м мгла {гроза, дождь} 9/4 600 м
[Sc Ac trans Ci fib]
+31.2 +20.4 53 +38 +38 очень
душно
997.6 998.0 0.4
21 23.06 З 1 4000 м мгла 9/4 600 м
[Sc Ac trans Ci fib]
+31.6 +20.5 52 +39 +39 очень
душно
997.0 997.0 0.4
00 24.06 штиль 0 2000 м мгла 9/5 600 м
[Sc Ac trans Ci fib]
+31.0 +20.1 52 +37 +37 очень
душно
997.1 997.0 0.4
03 24.06 ЮЗ 2 2000 м мгла 9/5 600 м
[Sc diur, vesp Ac trans Ci fib]
+30.6 +21.7 59 +39 +41 очень
душно
1000.7 1001.0 +28.4 +40.6 0.4
06 24.06 З 1 4000 м 6/0
[Ac trans Ci fib]
+35.4 +20.9 43 +42 +60 опасность
перегрева
991.1 991.0
09 24.06 штиль 0 2000 м мгла 8/5 600 м
[Sc diur, vesp Ac trans]
+39.6 +20.1 33 +45 +53 опасность
перегрева
996.1 996.0
12 24.06 штиль 0 2000 м мгла 6/4 600 м
[Sc diur, vesp Ac trans]
+38.8 +18.6 31 +43 +45 опасность
перегрева
993.6 994.0 +39.6
15 24.06 В 3 2000 м зарница 10/3 600 м
[Cb cap Ac As]
+31.4 +21.0 54 +39 +39 очень
душно
998.3 998.0
18 24.06 ЮЗ 1 2000 м мгла 9/6 600 м
[Sc Ac trans]
+32.0 +20.3 50 +39 +39 очень
душно
998.3 998.0
21 24.06 ЮВ 2 2000 м мгла 10/8 600 м
[Sc Ac trans]
+30.6 +20.7 56 +38 +38 очень
душно
998.2 998.0
00 25.06 штиль 0 2000 м мгла 10/5 600 м
[Sc Ac trans Ci fib]
+29.0 +21.6 64 +37 +37 очень
душно
997.9 998.0
03 25.06 ЮЗ 3 2000 м мгла 9/6 600 м
[Sc Ac trans]
+30.6 +21.4 58 +39 +40 очень
душно
998.1 998.0 +27.9 +39.6
06 25.06 З 1 2000 м мгла 10/5 600 м
[Sc Ac As]
+31.4 +22.7 60 +41 +45 опасность
перегрева
998.0 998.0
09 25.06 З 1 2000 м мгла 9/5 600 м
[Sc Ac trans]
+35.2 +22.1 47 +44 +50 опасность
перегрева
994.6 995.0
12 25.06 З 2 2000 м мгла 8/3 600 м
[Sc Ac trans Ci fib]
+35.6 +21.2 43 +43 +44 опасность
перегрева
991.8 992.0 +37.6
18 25.06 ЮЗ 6 2000 м зарница 10/4 600 м
[Cb cap Ac As]
+28.4 +21.9 68 +37 +37 очень
душно
996.0 996.0

 

Местоположение метеостанции Ajmer (Rajasthan, Индия): широта 26.45 долгота 74.62 высота над уровнем моря 486 м.

В архиве по умолчанию представлена погода в Ajmer за последнюю неделю. Архивные данные за месяц целиком и за предыдущие месяцы, начиная с января 2011 года, Вы можете получить, выбрав интересующий диапазон дат из раскрывающегося списка и нажав кнопку "Ввод!".


*Определитесь, кто Вы:
робот инопланетянин человек

Внимание! Время в таблицах - всемирное. Для получения местного времени необходимо прибавить поправку, которая в Ajmer равна 5.5 ч.

Смотрите также архив погоды в соседних городах и на ближайших метеорологических станциях:

Погода в Bhilwara (Rajasthan, Индия) (122 км)
Погода в Jaipur (Rajasthan, Индия) (124 км)
Погода в Jodhpur (Rajasthan, Индия) (160 км)
Погода в Chittorgarh (Rajasthan, Индия) (175 км)
Погода в Kota (Rajasthan, Индия) (190 км)
Погода в Churu (Rajasthan, Индия) (202 км)
Погода в Bikaner (Rajasthan, Индия) (216 км)
Погода в Maharana Pratap Airport (Rajasthan, Индия) (217 км)
Погода в Sheopur (Madhya Pradesh, Индия) (223 км)
Погода в Pilani (Rajasthan, Индия) (230 км)

Пояснения к столбцам:

Ветер - указаны скорость ветра в м/с - средняя за 10 мин, порывы в срок и между сроками (в фигурных скобках) и направление, откуда дует ветер: С - северный, СВ - северо-восточный, В - восточный, ЮВ - юго-восточный, Ю - южный, ЮЗ - юго-западный, З - западный, СЗ - северо-западный.
Видимость - горизонтальная дальность видимости в метрах или километрах. При видимости от 1 до 10 км при отсутствии осадков обычно наблюдается дымка, при ухудшении видимости до 1 км и менее - туман. В сухую погоду видимость может ухудшаться дымом, пылью или мглою.
Явления - указаны атмосферные явления, наблюдавшиеся в срок или в последний час перед сроком; фигурными скобками обозначены явления, наблюдавшиеся между сроками (за 1-3 часа до срока); квадратными скобками обозначены град или гололедные отложения с указанием их диаметра в мм.
Облачность - указаны через наклонную черту общая и нижняя облачность в баллах и высота нижней границы облаков в метрах; квадратными скобками обозначены формы облаков: Ci - перистые, Cs - перисто-слоистые, Cc - перисто-кучевые, Ac - высококучевые, As - высокослоистые, Sc - слоисто-кучевые, Ns - слоисто-дождевые, Cu - кучевые, Cb - кучево-дождевые. Подробнее классификацию облаков см. в Атласе облаков (PDF).
T - Температура воздуха - температура, измеренная на высоте 2 м над землей.
Td - Температура точки росы - температура, при понижении до которой содержащийся в воздухе водяной пар достигнет насыщения.
f - Относительная влажность воздуха - влажноcть воздуха, измеренная на высоте 2 м над землей.
Te - Эффективная температура - температура, которую ощущает одетый по сезону человек в тени. Характеристика душности погоды. При расчете учитывается влияние влажности воздуха и скорости ветра на теплоощущения человека.
Tes - Эффективная температура на солнце - температура, которую ощущает человек, с поправкой на солнечный нагрев. Характеристика знойности погоды. Зависит от высоты солнца над горизонтом, облачности и скорости ветра. Ночью, в пасмурную погоду, а также при ветре 12 м/с и более поправка равна нулю.
P - Атмосферное давление - приведенное к уровню моря атмосферное давление.
Po - Атмосферное давление - измеренное на уровне метеостанции атмосферное давление.
Tmin - Минимальная температура - минимум температуры воздуха на высоте 2 м над землей.
Tmax - Максимальная температура - максимум температуры воздуха на высоте 2 м над землей.
R - Количество осадков - Количество выпавших осадков за период времени, мм. При наведении курсора мыши на число - период времени, за который выпало указанное количество осадков.
R24 - Количество осадков - Количество выпавших осадков за 24 часа, мм.
S - Снежный покров - Высота снежного покрова, см. При наведении курсора мыши на число - состояние снежного покрова и степень покрытия местности в баллах.